Flag for China Weather past 2 weeks in Suzhou, Jiangsu, China

Now
91 °F

Haze.


Feels Like: 105 °F
Forecast: 76 / 85 °F
Wind: 3 mph from Southwest

Location: Shanghai Hongqiao Airport

Current Time: Jul 11, 2014 at 9:38:52 AM

Latest Report: Jul 11, 2014 at 9:00 AM


Visibility: 2 mi

Pressure: 29.62 "Hg

Humidity: 63%

Dew point: 77 °F

Location of SuzhouLocation

Historic Weather in Suzhou — Graph

°F

Suzhou temperature yesterday

Maximum temperature yesterday: 95 °F (at 12:00 PM)
Minimum temperature yesterday: 79 °F (at 1:00 AM)
Average temperature yesterday: 86 °F

Past Weeks' High & Low Weather Summary

 TemperatureHumidityPressure
High95 °F (Jul 10, 12:00 PM)94% (Jun 26, 9:00 AM)29.86 "Hg (Jun 26, 9:00 AM)
Low70 °F (Jun 27, 11:30 PM)37% (Jun 30, 11:30 AM)29.45 "Hg (Jul 9, 3:00 AM)
Average78 °F77%29.67 "Hg
* Reported Jun 26 8:00 AM — Jul 11 8:30 AM, Suzhou, Weather by CustomWeather, © 2014

Note: Actual official high and low records may vary slightly from our data, if they occured in-between our weather recording intervals... More about our weather records

Advertising

Suzhou weather history for previous 24 hours

 ConditionsComfort  
Time TempWeatherWind HumidityBarometerVisibility
8:30 AM
Jul 11
90 °FHaze.3 mph67%29.62 "Hg2 mi
8:00 AM88 °FHaze.3 mph66%29.62 "Hg1 mi
7:30 AM86 °FFog.3 mph75%29.62 "Hg1 mi
7:00 AM84 °FFog.1 mph79%29.62 "Hg1 mi
6:30 AM82 °FFog.3 mph84%29.62 "Hg1 mi
6:00 AM82 °FFog.3 mph84%29.62 "Hg2 mi
5:30 AM81 °FFog.3 mph89%29.59 "Hg2 mi
5:00 AM81 °FFog.1 mph89%29.59 "Hg2 mi
4:30 AM81 °FFog.3 mph84%29.59 "Hg2 mi
4:00 AM81 °FFog.3 mph84%29.59 "Hg2 mi
3:30 AM81 °FFog.3 mph84%29.59 "Hg2 mi
3:00 AM81 °FFog.3 mph84%29.59 "Hg2 mi
2:30 AM82 °FFog.6 mph79%29.59 "Hg2 mi
2:00 AM82 °FFog.6 mph79%29.59 "Hg2 mi
1:30 AM82 °FFog.6 mph84%29.59 "Hg2 mi
1:00 AM82 °FFog.6 mph84%29.59 "Hg2 mi
12:30 AM84 °FFog.6 mph79%29.59 "Hg2 mi
12:00 AM84 °FFog.6 mph74%29.62 "Hg2 mi
11:30 PM
Jul 10
84 °FFog.3 mph74%29.59 "Hg2 mi
11:00 PM84 °FFog.6 mph74%29.59 "Hg2 mi
10:30 PM84 °FPassing clouds.6 mph74%29.62 "Hg2 mi
10:00 PM86 °FPassing clouds.8 mph70%29.62 "Hg2 mi
9:30 PM86 °FPassing clouds.6 mph70%29.62 "Hg2 mi
9:00 PM86 °FPassing clouds.6 mph70%29.62 "Hg2 mi
8:30 PM86 °FPassing clouds.8 mph70%29.59 "Hg2 mi
8:00 PM86 °FPassing clouds.6 mph70%29.59 "Hg2 mi
7:30 PM88 °FPassing clouds.8 mph70%29.59 "Hg2 mi
7:00 PM88 °FPartly sunny.6 mph70%29.59 "Hg2 mi
6:30 PM90 °FPartly sunny.10 mph67%29.59 "Hg2 mi
6:00 PM90 °FScattered clouds.8 mph67%29.56 "Hg4 mi
5:30 PM90 °FScattered clouds.10 mph67%29.56 "HgN/A
5:00 PM93 °FScattered clouds.6 mph49%29.53 "HgN/A
4:30 PM93 °FScattered clouds.6 mph53%29.53 "HgN/A
4:00 PM93 °FScattered clouds.8 mph53%29.53 "HgN/A
3:30 PM95 °FPassing clouds.10 mph47%29.53 "HgN/A
3:00 PM93 °FPassing clouds.8 mph53%29.53 "HgN/A
2:30 PM95 °FPassing clouds.3 mph50%29.53 "HgN/A
2:00 PM95 °FPartly sunny.6 mph50%29.56 "HgN/A
1:30 PM93 °FScattered clouds.8 mph49%29.56 "HgN/A
1:00 PM93 °FScattered clouds.8 mph56%29.56 "HgN/A
12:30 PM93 °FScattered clouds.6 mph53%29.56 "HgN/A
12:00 PM95 °FPartly sunny.3 mph53%29.56 "Hg4 mi
11:30 AM91 °FPartly sunny.6 mph59%29.59 "Hg4 mi
11:00 AM91 °FPartly sunny.3 mph59%29.59 "Hg4 mi
10:30 AM90 °FScattered clouds.3 mph63%29.59 "Hg4 mi
10:00 AM90 °FPassing clouds.6 mph63%29.59 "Hg4 mi
9:30 AM90 °FClear.6 mph63%29.62 "Hg4 mi
9:00 AM88 °FClear.6 mph66%29.62 "Hg4 mi
Weather by CustomWeather, © 2014

See weather overviewHow to use our weather pages